Location: Zapote
(9.9191°N, 84.0597°W)
Time: 17:45:32
(UTC-06:00)

Transit 2A - Pass Details

Date: 07 March 2021
Orbit: 602 x 957 km, 66.7° (Epoch: 16 April)

Event Time Altitude Azimuth Distance (km) Brightness Sun altitude
Rises 03:34:14 0° 334° (NNW) 2,865 - -33.6°
Reaches altitude 10° 03:36:26 10° 331° (NNW) 1,985 - -33.1°
Maximum altitude 03:40:50 64° 250° (WSW) 723 - -32.0°
Drops below altitude 10° 03:45:37 10° 169° (S) 2,147 - -30.8°
Exits shadow 03:45:46 - 169° (SSE) 2,207 8.5 -30.8°
Sets 03:48:04 0° 166° (SSE) 3,122 9.3 -30.2°
